Regional Weather Roundup
Issued by NWS Charleston, SC

Current Version | Previous Version | Text Only | Print | Product List | Glossary Off
Versions: 1 2 3 4 5 6 7 8 9 10 11 12 13 14 15 16 17 18 19 20 21 22 23 24 25 26 27 28 29 30 31 32 33 34 35 36 37 38 39 40 41 42 43 44 45 46 47 48 49 50

000
ASUS42 KCHS 241827
RWRCHS

REGIONAL WEATHER ROUNDUP
NATIONAL WEATHER SERVICE CHARLESTON SC
100 PM EST FRI NOV 24 2017

NOTE: "FAIR" INDICATES FEW OR NO CLOUDS BELOW 12,000 FEET WITH NO
SIGNIFICANT WEATHER AND/OR OBSTRUCTIONS TO VISIBILITY.

NOT ALL STATIONS ARE QUALITY CONTROLLED. USE DATA WITH CAUTION...
ESPECIALLY DEWPOINT OBSERVATIONS.

SCZ027-030-031-034>040-042>050-241900-
...SOUTHEAST SOUTH CAROLINA...

CITY           SKY/WX    TMP DP  RH WIND       PRES   REMARKS
N CHARLESTON   MOSUNNY   60  34  37 N7        29.94F
6HR MIN TEMP:  42; 6HR MAX TEMP:  61;

WATERFRONT PRK   N/A     57  34  41 N12       29.79F
JOHNS ISLAND   MOCLDY    59  34  38 N8        29.93F
PINOPOLIS        N/A     54  37  54 N6        29.88F
MONCKS CORNER  FAIR      57  32  38 N6        29.95S
SUMMERVILLE    FAIR      59  32  36 N12       29.95F
BEAUFORT MCAS  SUNNY     63  34  33 N10       29.94F
6HR MIN TEMP:  44; 6HR MAX TEMP:  63;

BEAUFORT ARPT  FAIR      61  36  39 N10       29.93F
HILTON HEAD IS MOSUNNY   59  37  44 N14       29.94F
WALTERBORO     CLEAR     61  32  33 NE10      29.95F
ALLENDALE      FAIR      61  32  33 NE8G16    29.95F

...SOUTHERN MIDLANDS AND PEE DEE...

CITY           SKY/WX    TMP DP  RH WIND       PRES   REMARKS
GEORGETOWN     CLOUDY    55  30  38 N6        29.94F
KINGSTREE      FAIR      59  30  33 N6        29.96F
ORANGEBURG     SUNNY     59  33  37 VRB6      29.98F
6HR MIN TEMP:  36; 6HR MAX TEMP:  59;

BARNWELL         N/A     63  36  36 N8        29.97F
AIKEN          FAIR      59  34  38 N3        30.01F
MANNING        FAIR      59  34  38 MISG      29.96F
COLUMBIA       MOSUNNY   62  34  35 VRB5      29.99F
6HR MIN TEMP:  31; 6HR MAX TEMP:  62;

SUMTER         SUNNY     59  28  31 N8        29.96F
6HR MIN TEMP:  33; 6HR MAX TEMP:  59;

FLORENCE       SUNNY     59  30  33 N3        29.98F
6HR MIN TEMP:  34; 6HR MAX TEMP:  59;

MYRTLE BEACH   MOSUNNY   57  28  33 N12       29.95F
N MYRTLE BEACH SUNNY     57  30  35 NE10      29.94F
6HR MIN TEMP:  42; 6HR MAX TEMP:  57;


$$

GAZ063-065-086>088-099>101-113>116-118-119-134>141-150-241900-
...SOUTHEAST GEORGIA...

CITY           SKY/WX    TMP DP  RH WIND       PRES   REMARKS
SAVANNAH ARPT  MOSUNNY   64  38  38 N7        29.94F
6HR MIN TEMP:  42; 6HR MAX TEMP:  64;

HUNTER AAF     SUNNY     64  37  37 N3        29.91F
6HR MIN TEMP:  45; 6HR MAX TEMP:  64;

FORT STEWART   SUNNY     64  37  37 N7        29.92F
6HR MIN TEMP:  43; 6HR MAX TEMP:  64;

STATESBORO     SUNNY     64  32  30 NE8       29.95F
SYLVANIA       CLEAR     63  39  40 NE7       29.96F
CLAXTON        FAIR      66  38  36 N7        29.95F

...CSRA...CENTRAL AND FAR SOUTHEAST GEORGIA...

CITY           SKY/WX    TMP DP  RH WIND       PRES   REMARKS
THOMSON        SUNNY     59  34  39 NE7       30.03F
AUGUSTA-BUSH   SUNNY     62  35  36 E3        29.98F
6HR MIN TEMP:  32; 6HR MAX TEMP:  62;

AUGUSTA-DANIEL SUNNY     61  37  41 NW6       29.99F
SWAINSBORO     FAIR      63  36  36 NE7       29.98F
VIDALIA        SUNNY     66  37  34 NE5       29.97F
EASTMAN        FAIR      65  14  13 NE6       30.00F
HAZLEHURST     FAIR      67  20  16 N6        29.95F
ALMA           SUNNY     65  39  38 VRB5      29.95F
6HR MIN TEMP:  43; 6HR MAX TEMP:  65;

WAYCROSS       SUNNY     65  35  33 NE6       29.94F
JESUP          FAIR      66  36  32 CALM      29.94F
BAXLEY         FAIR      63  36  36 E8        29.94F
BRUNSWICK      MOSUNNY   63  39  42 N10       29.93F
SAINT SIMONS   MOSUNNY   63  43  48 N10       29.92F
6HR MIN TEMP:  50; 6HR MAX TEMP:  63;


$$

SCZ027-028-034-036>038-045-046-048>050-GAZ119-141-241900-
...LAKE AND SUPPLEMENTAL COASTAL OBSERVATIONS...

STATION/POSITION TIME  TEMP    WIND        PRES    WAVE   SWELL
                       AIR SEA DIR/SP/G            HT/PER HT/PER/DIR
                 (UTC) (F)     (DEG/KT/KT) (MB)    (FT/S) (FT/S/D)
WINYAH BAY       1730   55      10/  5     1014.0F
LAKE MURRAY      1820   60      CALM  /  3 1014.6
ACE BASIN NERRS  1745   60     350/  3     1014.0F
FORT PULASKI     1800   58 60   20/  9/ 13 1013.7
SAPELO ISLAND    1800   61      20/ 12     1013.0

$$

ANZ835-935-AMZ111-154-330-350-352-354-370-450-454-472-241900-
...C-MAN AND BUOY OBSERVATIONS...

STATION/POSITION TIME  TEMP    WIND        PRES    WAVE   SWELL
                       AIR SEA DIR/SP/G            HT/PER HT/PER/DIR
                 (UTC) (F)     (DEG/KT/KT) (MB)    (FT/S) (FT/S/D)
BUOY 41004       1810   62 73   20/ 21/ 25 1011.6
BUOY 41008       1750   58 66   20/ 19/ 23 1012.3F   6/ 7   3/110/ 9
FOLLY BEACH CMAN 1800   56      20/  7/  9 1014.0F
CAPERS NEARSHORE 1808   53 61   30/ 14/ 19 1013.0F
FRIPP NEARSHORE  1808   55 61   10/ 12/ 21 1012.6F


STATION/POSITION TIME  TEMP    WIND        PRES    WAVE   SWELL
                       AIR SEA DIR/SP/G            HT/PER HT/PER/DIR
                 (UTC) (F)     (DEG/KT/KT) (MB)    (FT/S) (FT/S/D)
5E ST. MARYS GA  1730      67                N/A     7/ 6   2/ 90/11
FRYING PAN BUOY  1810   60 72   20/ 23/ 27 1012.1
BUOY 41025       1810   62 72   30/ 19/ 23 1013.3
CAPE LOOKOUT NC  1800           10/ 17/ 21 1013.8F
BUOY 41002       1750   72 76  310/ 29/ 37 1007.2F   9/ 8
BUOY 41010       NOT AVBL
ST AUGUSTINE FL  1800   62 67  350/ 24/ 26 1012.4F


$$




USA.gov is the U.S. government's official web portal to all federal, state and local government web resources and services.